一网星座-0677星 (ONEWEB-0677)

导读

ONEWEB-0677是英国OneWeb公司低轨卫星互联网星座的一员,于2023年5月20日发射入轨,运行在1200公里高度的近地极地轨道上。卫星质量约175-200kg,工作在Ku波段,采用渐进倾斜技术避免与同步轨道卫星干扰,将为全球偏远地区及政企客户提供高速低延迟的卫星互联网接入服务,助力OneWeb完成全球卫星星座组网,缩小数字鸿沟。

Basic Information
目录编号:
56713
目录名称:
ONEWEB-0677
国际标识:
2023-068D
轨道中心:
EARTH
卫星名称:
一网星座-0677星
卫星全名:
一网星座-0677星 (ONEWEB-0677)
卫星状态:
在轨 (已飞行1121 天)
发射日期:
2023-05-20 UTC
国别 :
英国 (GB)
星等 :
--
Orbit Information
数据来源 国际轨道数据 AOE轨道数据
星历时间 2026-06-14T20:49:32+0800
3小时前
查看轨道信息
2026-06-14T05:00:00+0800
19小时前
查看轨道信息
半长轴 7559.915km 7559.918km
偏心率 0.0002268 0.0002175
轨道倾角 87.919° 87.920°
近地点辐角 93.015° 86.600°
升交点赤经 274.963° 275.095°
平近点角 267.124° 20.065°
近地点 1180.063km 1180.136km
远地点 1183.493km 1183.426km
周期 109.027分钟 109.027分钟
每日圈数 13.207707 13.2077
Detailed Information
平衡模式:
三轴稳定
覆盖范围:
全球
运营商:
一网卫星公司
运营商所在国:
英国
制造商(研发单位):
一网卫星公司
制造商所在国:
英国
使用方式:
暂无
Satellite Introduction
OneWeb卫星网络由648颗重约125公斤的微型卫星组成,运行在1200公里的轨道上。 每颗卫星都能够提供至少每秒8千兆位的吞吐量,以使用其高吞吐量的Ku频段有效载荷为家庭和移动平台提供互联网接入。该卫星仍在工作。
2D Orbit Map
3D Orbit Map
Orbit Altitude Analysis Chart
Orbit Inclination Analysis Chart
Orbit Comprehensive Analysis Chart
View Comprehensive Chart